Regional Weather Roundup
Issued by NWS Grand Forks, ND

Home | Current Version | Previous Version | Text Only | Print | Product List | Glossary On
Versions: 1 2 3 4 5 6 7 8 9 10 11 12 13 14 15 16 17 18 19 20 21 22 23 24 25 26 27 28 29 30 31 32 33 34 35 36 37 38 39 40 41 42 43 44 45 46 47 48 49 50
000
ASUS43 KFGF 231431
RWRFGF
PRAIRIE TO PINES  WEATHER ROUNDUP
NATIONAL WEATHER SERVICE EASTERN NORTH DAKOTA/GRAND FORKS ND
900 AM CDT WED JUL 23 2014

 **SATELLITE DATA USED TO AUGMENT SKY COVER AT AUTOMATED STATIONS**
 *****  WEATHER ACROSS EASTERN NORTH DAKOTA  *****

CITY           SKY/WX    TMP DP  RH WIND       PRES   REMARKS
GRAND FORKS    PTSUNNY   63  59  87 NW5       30.32R
GRAND FRKS AFB PTSUNNY   62  62  99 N6        30.33R
GRAND FRKS NWS   N/A     64 N/A N/A N1          N/A
DEVILS LAKE    CLOUDY    64  54  68 E8        30.32S
FARGO          PTSUNNY   65  59  81 N5        30.30R
WAHPETON ARPT  MOSUNNY   70  55  60 CALM      30.30S
$$

 ***** WEATHER ACROSS CENTRAL AND WESTERN NORTH DAKOTA  *****

CITY           SKY/WX    TMP DP  RH WIND       PRES   REMARKS
BISMARCK       SUNNY     70  61  73 SE9       30.28R
MINOT          CLOUDY    65  63  93 E8        30.27F
JAMESTOWN      LGT RAIN  64  60  87 CALM      30.31S
MINOT AFB      PTSUNNY   64  64 100 E10       30.27S
GARRISON         N/A     70  64  81 SE10      30.26S
WILLISTON      PTSUNNY   70  62  76 E7        30.22S
DICKINSON      SUNNY     68  62  81 SE12      30.23R
HETTINGER      SUNNY     67  60  78 SE15G21   30.25R
$$

 *****  OTHER AIRPORT OBSERVATIONS IN OUR AREA  *****

CITY           SKY/WX    TMP DP  RH WIND       PRES   REMARKS
WALHALLA         N/A     63  59  88 N7          N/A
GRAFTON AIRPOR FAIR      61  59  94 NW7       30.33R
VALLEY CITY AR   N/A     63  63 100 NE5         N/A
CANDO          CLOUDY    61  55  82 E7        30.34S
CAVALIER APRT  FAIR      63  57  82 N7        30.34R
GWINNER        MOSUNNY   66  61  82 E3        30.31S
SHEYENNE NWR     N/A     68  59  74 N3        29.95S
ROLLA          PTSUNNY   63  54  72 E8        30.36R
 ***** THE ABOVE OBSERVATIONS ARE NON NWS ARE NOT QUALITY
       CONTROLLED AND MAY MIS-REPORT RAIN FOR SNOW...
$$

  *****  WEATHER ACROSS NORTHERN MINNESOTA  *****

CITY           SKY/WX    TMP DP  RH WIND       PRES   REMARKS
FLAG ISLAND    MOSUNNY   64  54  68 N9        30.30R
WARROAD        MOSUNNY   64  59  82 VRB6      30.31S
ROSEAU         PTSUNNY   64  59  82 NE5       30.31S
HALLOCK        PTSUNNY   63  57  82 N6        30.32S
THF RVR FALLS  PTSUNNY   61  57  88 NW5       30.31S
BAUDETTE       MOSUNNY   65  56  72 E5        30.31R
WASKISH        MOSUNNY   66  59  77 CALM      30.29S
CROOKSTON      PTSUNNY   64  59  82 N3        30.32R
$$
  *****  WEATHER ACROSS CENTRAL AND WEST MINNESOTA  *****

CITY           SKY/WX    TMP DP  RH WIND       PRES   REMARKS
FOSSTON        PTSUNNY   63  57  82 CALM      30.31S
BEMIDJI        CLOUDY    65  58  77 N5        30.29S
PARK RAPIDS    MOSUNNY   65  55  70 N6        30.30S
ELBOW LAKE     FAIR      69  60  75 NE3       30.30R
WADENA         SUNNY     66  57  72 CALM      30.29S
DETROIT LAKES  MOSUNNY   64  55  72 E5        30.32R
MOORHEAD       PTSUNNY   66  64  94 NE5       30.30S
FERGUS FALLS   SUNNY     70  55  60 NE3       30.30R
MORRIS MN      SUNNY     72  61  68 E3        30.29R
STAPLES        SUNNY     66  54  63 N8        30.29F
$$
  *****  WEATHER ELSEWHERE ACROSS MINNESOTA  *****

CITY           SKY/WX    TMP DP  RH WIND       PRES   REMARKS
DULUTH         MOSUNNY   67  56  67 NE5       30.27R
INTRNTL FALLS  PTSUNNY   63  52  67 NE5       30.30R
ELY            MOSUNNY   63  54  72 E3        30.28R
CLOQUET        SUNNY     66  55  68 N5        30.26F
WHEATON        MOSUNNY   66  59  77 E3        30.31R
BRAINERD       MOSUNNY   65  57  75 N7        30.29S
HIBBING        MOSUNNY   68  54  60 N5        30.29R
ALEXANDRIA     SUNNY     68  55  63 E8        30.30F
SAINT CLOUD    SUNNY     71  58  63 N6        30.27F
MINNEAPOLIS    MOSUNNY   72  55  55 NW3       30.26R
$$

  *****  WEATHER ACROSS SOUTH DAKOTA  *****

CITY           SKY/WX    TMP DP  RH WIND       PRES   REMARKS
SIOUX FALLS    PTSUNNY   69  57  65 E7        30.29F
BROOKINGS      NOT AVBL
WATERTOWN      SUNNY     68  55  63 E8        30.30S
HURON          SUNNY     68  58  70 SE7       30.29R
SISSETON         N/A     68  59  73 CALM      30.29S
ABERDEEN       MOSUNNY   67  59  75 S6        30.30R
MITCHELL       MOSUNNY   68  59  73 SE7       30.30S
PIERRE         SUNNY     72  60  66 SE16G23   30.25R
MOBRIDGE       SUNNY     70  59  68 SE13      30.25S
RAPID CITY     PTSUNNY   71  59  65 SE6       30.24R
$$

  *****  SOME WEATHER IN NEARBY STATES *****

CITY           SKY/WX    TMP DP  RH WIND       PRES   REMARKS
GLASGOW MT     SUNNY     70  60  70 E16       30.16F
GREAT FALLS MT LGT RAIN  61  57  88 SW8       30.17R
CHEYENNE WY    CLOUDY    63  60  90 SE8       30.43R FOG
SCOTTSBLUFF NE CLOUDY    71  59  65 SE18      30.33S
OMAHA NE       MOSUNNY   71  59  65 N9        30.24R
DES MOINES IA  MOSUNNY   74  62  66 N6        30.20R
DAVENPORT IA   SUNNY     71  63  75 NE14      30.17R
CHICAGO IL     MOSUNNY   68  54  60 N20       30.14R
EAU CLAIRE WI  SUNNY     70  61  73 VRB3      30.23S
LA CROSSE WI   SUNNY     72  60  66 N6        30.23R
$$

  *****  SOME NATIONAL WEATHER *****

CITY           SKY/WX    TMP DP  RH WIND       PRES   REMARKS
LA GUARDIA NY  MOSUNNY   80  67  64 SW10      29.95F
RALEIGH NC     PTSUNNY   82  72  71 W5        30.08S
ATLANTA GA     PTSUNNY   79  70  73 VRB3      30.12F
NEW ORLEANS LA LGT RAIN  78  73  84 N6        30.04F
OKLAHOMA CITY  MOSUNNY   80  72  76 SW6       30.15S
ALBUQUERQUE NM MOSUNNY   73  55  53 NW6       30.37R
SALT LAKE CITY MOSUNNY   79  38  22 SE12      30.12R
LOS ANGELES CA MOSUNNY   67  61  81 E3        30.01R
BOISE ID       MOSUNNY   66  58  75 CALM      30.06S
SEATTLE WA     CLOUDY    60  58  92 SW5       30.02R
$$

*** WEATHER ACROSS MANITOBA...SASKATCHEWAN AND ONTARIO ***
                ***ONTARIO***

CITY           SKY/WX    TMP DP  RH WIND       PRES   REMARKS
GERALDTON      MOSUNNY   61  50  67 NW8       30.21
THUNDER BAY    MOSUNNY   64  55  72 VRB2      30.23F
SIOUX LOOKOUT  MOSUNNY   61  50  67 NW5       30.29S
TORONTO        CLOUDY    68  61  77 N15G21    29.90R
BIG TROUT LK   SUNNY     66  50  55 NW15G23   30.12F
PICKLE LAKE    MOSUNNY   63  45  51 NW6       30.24F
DRYDEN         CLOUDY    59  54  82 W2        30.30S
KENORA         PTSUNNY   63  52  67 VRB2      30.33R
$$
                *** MANITOBA***

CITY           SKY/WX    TMP DP  RH WIND       PRES   REMARKS
BRANDON        MOSUNNY   64  54  68 E6        30.35S
DAUPHIN        SUNNY     61  52  72 CALM      30.34S
ISLAND LAKE    MOSUNNY   64  54  68 W9        30.27S
PILOT MOUND      N/A     61  52  72 NE5         N/A
THE PAS        SUNNY     68  54  60 SE2       30.29S
THOMPSON       SUNNY     66  52  59 W8        30.25F
WINNIPEG       MOSUNNY   64  57  77 NW2       30.34R
LYNN LAKE      SUNNY     66  52  59 W5        30.23F
CHURCHILL      PTSUNNY   59  54  82 NW12G17   30.05R SMOKE
GILLAM         CLOUDY    64  55  72 W9        30.16S
$$
                ***SASKATCHEWAN***

CITY           SKY/WX    TMP DP  RH WIND       PRES   REMARKS
ESTEVAN        MOSUNNY   64  57  77 E8        30.28R
KINDERSLEY     MOSUNNY   64  59  82 SE13      30.16S
LLOYDMINSTER   PTSUNNY   64  57  77 SE16      30.10F
PRINCE ALBERT  CLOUDY    64  57  77 SE5       30.25F
REGINA         MOSUNNY   64  57  77 SE13G20   30.27F
YORKTON        SUNNY     63  54  72 SE9       30.33S
N. BATTLEFORD  MOSUNNY   64  57  77 SE15      30.19S
LA RONGE       MOSUNNY   64  55  72 S5        30.25S
SASKATOON      PTSUNNY   66  55  68 SE13      30.24R
SWIFT CURRENT  SUNNY     66  59  77 MISG      30.18F
$$
NOTE: THESE ARE AUTOMATED STATIONS WITH LIMITED QUALITY CONTROL
      "FAIR" INDICATES FEW OR NO CLOUDS BELOW 12,000 FEET WITH NO
      SIGNIFICANT WEATHER AND/OR OBSTRUCTIONS TO VISIBILITY.
      SKY/WX - SKY CONDITION AND SIGNIFICANT WEATHER.
      TMP - AIR TEMPERATURE.    DP   - DEWPOINT TEMPERATURE.
      RH  - RELATIVE HUMIDITY.  PRES - PRESSURE.
      HX  - HEAT INDEX.         WCI  - WIND CHILL INDEX.
$



USA.gov is the U.S. government's official web portal to all federal, state and local government web resources and services.